Location: Diebersbach
(48.5163°N, 8.0558°E)
Time: 19:31:58
(UTC+00:00)

Cosmos 1825 - Pass Details

Date: 30 October 2021
Orbit: 501 x 504 km, 82.5° (Epoch: 01 December)

Event Time Altitude Azimuth Distance (km) Brightness Sun altitude
Rises 19:12:09 0° 330° (NNW) 2,610 6.4 -30.3°
Reaches altitude 10° 19:15:39 10° 295° (WNW) 1,718 5.7 -30.9°
Maximum altitude 19:16:49 11° 277° (W) 1,640 5.6 -31.1°
Drops below altitude 10° 19:17:59 10° 259° (WSW) 1,714 5.5 -31.3°
Sets 19:21:28 0° 224° (SW) 2,592 6.1 -31.8°
